Location: Mount Cross
(36.6390°N, 79.4878°W)
Time: 02:05:08
(UTC+00:00)

SR - Pass Details

Date: 07 April 2023
Orbit: 580 x 867 km, 66.7° (Epoch: 08 June)

Event Time Altitude Azimuth Distance (km) Brightness Sun altitude
Rises 12:29:23 0° 345° (NNW) 2,835 ? 17.9°
Reaches altitude 10° 12:31:57 10° 360° (N) 1,956 ? 18.5°
Maximum altitude 12:35:31 24° 55° (NE) 1,302 ? 19.2°
Drops below altitude 10° 12:39:16 10° 109° (ESE) 2,057 ? 19.9°
Sets 12:42:01 0° 123° (ESE) 3,018 ? 20.5°
